Fort Leonard Wood, MO

1:26 PM CST on December 07, 2016 (GMT -0600)
Waynesville Regional At Forney Field

Weather History for KTBN - November, 2014

Change the Weather History Date:

Thursday, November 20, 2014

  Actual Average Record
Temperature  
Mean Temperature 31 °F -  
Max Temperature 44 °F 52 °F 73 °F (2003)
Min Temperature 18 °F 37 °F 18 °F (2014)
Degree Days  
Heating Degree Days 34    
Moisture  
Dew Point 20 °F    
Average Humidity 67    
Maximum Humidity 96    
Minimum Humidity 41    
Precipitation  
Precipitation 0.00 in - - ()
Sea Level Pressure  
Sea Level Pressure 30.25 in    
Wind  
Wind Speed 3 mph (North)    
Max Wind Speed 6 mph    
Max Gust Speed -    
Visibility 10 miles    
Events      
Averages and records for this station are not official NWS values.
T = Trace of Precipitation, MM = Missing Value Source: NWS Daily Summary

Daily Weather History Graph

Daily Weather History Graph

Search for Another Location

Airport or City:

Trip Planner

Search our weather history database for the weather conditions in past years. The results will help you decide how hot, cold, wet, or windy it might be!

Date:

Astronomy

Nov. 20, 2014 Rise Set
Actual Time 6:54 AM CST 4:54 PM CST
Civil Twilight 6:25 AM CST 5:22 PM CST
Nautical Twilight 5:53 AM CST 5:54 PM CST
Astronomical Twilight 5:22 AM CST 6:25 PM CST
Moon 4:51 AM CST (11/20) 3:56 PM CST (11/20)
Length of Visible Light 10h 56m
Length of Day
10h 00m
Waning Crescent, 4% of the Moon is Illuminated
Nov 20
Waning Crescent
Nov 22
New
Nov 29
First Quarter
Dec 6
Full
Dec 14
Last Quarter

Hourly Weather History & Observations

Time (CST) Temp. Windchill Dew Point Humidity Pressure Visibility Wind Dir Wind Speed Gust Speed Precip Events Conditions
12:58 AM 23.9 °F - 18.5 °F 80% 30.23 in 10.0 mi NW 2.3 mph - N/A   Clear
1:58 AM 20.8 °F - 17.6 °F 87% 30.23 in 10.0 mi WSW 1.2 mph - N/A   Clear
2:58 AM 19.9 °F - 17.2 °F 89% 30.23 in 10.0 mi Calm Calm - N/A   Clear
3:58 AM 18.3 °F - 16.5 °F 93% 30.23 in 10.0 mi SW 1.2 mph - N/A   Clear
4:58 AM 19.2 °F - 17.2 °F 92% 30.24 in 10.0 mi SSW 2.3 mph - N/A   Clear
5:58 AM 19.4 °F 14.3 °F 17.6 °F 93% 30.25 in 10.0 mi South 3.5 mph - N/A   Clear
6:58 AM 18.7 °F - 17.8 °F 96% 30.25 in 10.0 mi South 2.3 mph - N/A   Clear
7:58 AM 23.0 °F 18.4 °F 19.4 °F 86% 30.26 in 10.0 mi SSW 3.5 mph - N/A   Clear
8:58 AM 28.8 °F 22.6 °F 21.0 °F 73% 30.28 in 10.0 mi SSW 5.8 mph - N/A   Clear
9:58 AM 34.3 °F 31.4 °F 19.9 °F 56% 30.28 in 10.0 mi WNW 3.5 mph - N/A   Clear
10:58 AM 37.0 °F 33.3 °F 19.8 °F 50% 30.27 in 10.0 mi North 4.6 mph - N/A   Clear
11:58 AM 39.9 °F 35.8 °F 19.9 °F 45% 30.26 in 10.0 mi NNW 5.8 mph - N/A   Clear
12:58 PM 41.4 °F 37.6 °F 21.6 °F 45% 30.23 in 10.0 mi NNW 5.8 mph - N/A   Clear
1:58 PM 44.1 °F - 21.9 °F 42% 30.22 in 7.0 mi Variable 1.2 mph - N/A   Clear
2:58 PM 44.2 °F 41.0 °F 21.7 °F 41% 30.21 in 10.0 mi North 5.8 mph - N/A   Clear
3:58 PM 43.5 °F 41.9 °F 22.1 °F 43% 30.21 in 10.0 mi NNE 3.5 mph - N/A   Clear
4:58 PM 41.5 °F - 21.6 °F 45% 30.22 in 10.0 mi NE 2.3 mph - N/A   Clear
5:58 PM 38.5 °F 36.1 °F 21.6 °F 51% 30.23 in 10.0 mi NE 3.5 mph - N/A   Clear
6:58 PM 35.2 °F 31.2 °F 21.9 °F 58% 30.25 in 10.0 mi NNE 4.6 mph - N/A   Clear
7:58 PM 34.2 °F 30.0 °F 22.5 °F 62% 30.28 in 10.0 mi NNE 4.6 mph - N/A   Clear
8:58 PM 33.4 °F 29.1 °F 22.3 °F 64% 30.29 in 10.0 mi NE 4.6 mph - N/A   Clear
9:58 PM 32.0 °F 28.7 °F 22.1 °F 67% 30.28 in 10.0 mi ENE 3.5 mph - N/A   Clear
10:58 PM 31.1 °F 25.4 °F 21.9 °F 69% 30.30 in 10.0 mi East 5.8 mph - N/A   Clear
11:58 PM 30.2 °F 24.3 °F 21.9 °F 71% 30.31 in 10.0 mi East 5.8 mph - N/A   Clear